CAPE
0 0 0 0 0 0 0 0 0 0 0 0 0 0 0 0 0 0 0 0 0 0 0 0 4 51 227 438 532 479 513 607 466 397 369 510 498 405 425 1149 1548 1382 1115 950
0 0 0 0 0 0 0 0 0 0 0 0 0 0 0 0 0 0 0 0 0 0 0 0 15 97 394 735 641 519 453 357 318 222 215 246 318 357 862 559 325 287 482 721
0 0 0 0 0 0 0 0 0 0 0 0 0 0 0 0 0 0 0 0 0 0 0 0 0 124 419 586 571 470 376 287 192 97 69 123 839 569 65 0 0 0 15 47
0 0 0 0 0 0 0 0 0 0 0 0 0 0 0 0 0 0 0 0 0 0 0 0 0 45 314 410 377 363 272 300 478 479 506 590 513 10 0 0 0 0 0 0
0 0 0 0 0 0 0 0 0 0 0 0 0 0 0 0 0 0 0 0 0 0 0 0 0 52 174 247 262 227 346 643 673 472 317 56 0 0 0 0 0 0 0 0
0 0 0 0 0 0 0 0 0 0 0 0 0 0 0 0 0 0 0 0 0 0 0 0 2 116 95 125 152 300 356 307 152 46 0 0 0 0 0 0 0 0 0 0
0 0 0 0 0 0 0 0 0 0 0 0 0 0 0 0 0 0 0 0 0 0 0 0 19 54 75 93 152 133 92 10 0 0 0 0 0 0 0 0 0 0 0 0
0 0 0 0 0 0 0 0 0 0 0 0 0 0 0 0 0 0 0 0 0 0 0 0 99 156 161 167 113 28 0 0 0 0 0 0 0 0 0 0 0 0 0 0
0 0 0 0 0 0 0 0 0 0 0 0 0 0 0 0 0 0 0 0 0 0 0 0 254 250 248 181 80 42 1 0 0 0 0 0 0 0 0 0 0 0 0 0
0 0 0 0 0 0 0 0 0 0 0 0 0 0 0 0 0 0 0 0 0 0 0 136 357 350 244 118 35 0 0 0 0 0 0 0 0 0 0 0 0 0 0 0
0 0 0 0 0 0 0 0 0 0 0 0 0 0 0 0 0 0 0 0 0 0 159 367 409 310 124 21 0 0 0 0 0 0 0 0 0 0 0 0 0 0 0 0
0 0 0 0 0 0 0 0 0 0 0 0 0 0 16 41 28 21 9 0 0 223 440 485 238 92 57 5 0 0 0 0 0 0 0 0 0 0 0 0 0 0 0 0
0 0 0 0 0 0 0 0 0 0 0 0 0 0 65 93 66 37 14 5 102 380 411 237 214 69 26 5 0 0 0 0 0 0 0 0 0 0 0 0 0 0 0 0
0 0 1 0 0 0 0 0 0 0 0 2 0 12 73 118 86 53 11 17 113 296 306 137 39 13 0 0 0 0 0 0 0 0 0 0 0 0 0 0 0 0 0 0
0 0 13 6 24 64 28 0 0 0 0 0 0 0 130 195 154 2 4 10 75 86 38 10 2 0 0 0 0 0 0 0 0 0 0 0 0 0 0 0 0 0 0 0
0 0 15 21 61 63 54 14 0 0 0 1 29 112 237 309 0 0 0 0 0 0 0 0 0 0 0 0 0 0 0 0 0 0 0 0 0 0 0 0 0 0 0 0
0 2 2 3 75 74 68 40 22 21 33 138 45 260 365 134 0 0 0 0 0 0 0 0 0 0 0 0 0 0 0 0 0 0 0 0 0 0 0 0 0 0 0 0
0 0 20 18 51 24 12 0 27 57 12 26 99 333 331 0 0 0 0 0 0 0 0 0 0 0 0 0 0 0 0 0 0 0 0 0 0 0 0 0 0 0 0 0
0 0 0 6 24 0 0 0 14 85 19 0 3 0 0 0 0 0 0 0 0 0 0 0 0 0 0 0 0 0 0 0 0 0 0 0 0 0 0 0 0 0 0 0
0 0 7 0 0 0 2 0 0 0 27 0 0 0 0 0 6 0 0 0 0 0 0 0 0 0 0 0 0 0 0 0 0 0 0 0 0 0 0 0 0 0 0 0
17 0 0 0 0 0 0 0 0 0 26 0 0 0 0 0 0 0 0 0 0 0 0 0 0 0 0 0 0 0 0 0 0 0 0 0 0 0 0 0 0 0 0 0
20 1 0 0 0 0 0 0 0 14 0 0 0 0 0 0 0 0 0 0 0 0 0 0 0 0 0 0 0 0 0 0 0 0 0 0 0 0 0 1 0 0 0 0
7 2 1 0 0 0 0 0 0 0 0 0 0 0 0 0 0 0 0 0 0 0 0 0 0 0 0 0 0 0 0 0 1 0 0 0 0 0 1 0 0 0 0 0
0 0 0 0 0 0 0 0 0 0 0 0 0 0 0 0 0 0 0 0 0 0 0 0 0 0 0 0 0 0 1 2 1 0 0 0 0 0 0 0 0 1 1 2
0 0 0 0 0 0 0 0 0 0 0 0 0 0 0 0 0 0 0 0 0 0 0 0 0 0 0 0 0 1 1 2 2 1 1 2 1 1 0 1 1 2 3 2
0 0 0 0 0 0 0 0 0 0 0 0 0 0 0 0 0 0 0 0 0 0 0 0 0 0 0 1 1 2 3 2 1 1 2 1 1 2 1 1 1 0 0 0
CIN
-0 -0 -0 -0 -0 -0 -0 -0 -0 -0 -0 -0 -0 -0 -0 -0 -0 -0 -0 -0 -0 -0 -0 -0 -273 -452 -428 -415 -387 -387 -335 -327 -347 -341 -311 -244 -203 -206 -167 -41 -44 -67 -98 -134
-0 -0 -0 -0 -0 -0 -0 -0 -0 -0 -0 -0 -0 -0 -0 -0 -0 -0 -0 -0 -0 -0 -0 -0 -223 -301 -331 -346 -350 -355 -344 -383 -401 -403 -387 -335 -272 -240 -100 -148 -233 -234 -186 -155
-0 -0 -0 -0 -0 -0 -0 -0 -0 -0 -0 -0 -0 -0 -0 -0 -0 -0 -0 -0 -0 -0 -0 -0 -0 -224 -294 -318 -335 -331 -341 -371 -413 -433 -433 -375 -139 -151 -248 -0 -0 -0 -300 -399
-0 -0 -0 -0 -0 -0 -0 -0 -0 -0 -0 -0 -0 -0 -0 -0 -0 -0 -0 -0 -0 -0 -0 -0 -0 -210 -245 -314 -359 -351 -365 -328 -260 -252 -225 -184 -172 -50 -0 -0 -0 -0 -0 -0
-0 -0 -0 -0 -0 -0 -0 -0 -0 -0 -0 -0 -0 -0 -0 -0 -0 -0 -0 -0 -0 -0 -0 -0 -0 -198 -306 -352 -362 -401 -349 -247 -229 -262 -282 -325 -0 -0 -0 -0 -0 -0 -0 -0
-0 -0 -0 -0 -0 -0 -0 -0 -0 -0 -0 -0 -0 -0 -0 -0 -0 -0 -0 -0 -0 -0 -0 -0 -56 -258 -309 -390 -397 -333 -288 -306 -357 -251 -0 -0 -0 -0 -0 -0 -0 -0 -0 -0
-0 -0 -0 -0 -0 -0 -0 -0 -0 -0 -0 -0 -0 -0 -0 -0 -0 -0 -0 -0 -0 -0 -0 -0 -183 -197 -242 -296 -314 -315 -321 -174 -0 -0 -0 -0 -0 -0 -0 -0 -0 -0 -0 -0
-0 -0 -0 -0 -0 -0 -0 -0 -0 -0 -0 -0 -0 -0 -0 -0 -0 -0 -0 -0 -0 -0 -0 -0 -121 -169 -219 -275 -295 -336 -0 -0 -0 -0 -0 -0 -0 -0 -0 -0 -0 -0 -0 -0
-0 -0 -0 -0 -0 -0 -0 -0 -0 -0 -0 -0 -0 -0 -0 -0 -0 -0 -0 -0 -0 -0 -0 -0 -157 -185 -200 -240 -269 -268 -199 -0 -0 -0 -0 -0 -0 -0 -0 -0 -0 -0 -0 -0
-0 -0 -0 -0 -0 -0 -0 -0 -0 -0 -0 -0 -0 -0 -0 -0 -0 -0 -0 -0 -0 -0 -14 -218 -204 -178 -208 -247 -311 -0 -0 -0 -0 -0 -0 -0 -0 -0 -0 -0 -0 -0 -0 -0
-0 -0 -0 -0 -0 -0 -0 -0 -0 -0 -0 -0 -0 -0 -0 -0 -0 -0 -0 -0 -0 -0 -239 -181 -161 -183 -246 -295 -25 -0 -0 -0 -0 -0 -0 -0 -0 -0 -0 -0 -0 -0 -0 -0
-0 -0 -0 -0 -0 -0 -0 -0 -0 -0 -0 -0 -0 -0 -139 -135 -162 -203 -201 -0 -0 -230 -168 -134 -209 -251 -240 -272 -0 -0 -0 -0 -0 -0 -0 -0 -0 -0 -0 -0 -0 -0 -0 -0
-0 -0 -0 -0 -0 -0 -0 -0 -0 -0 -0 -0 -0 -5 -213 -193 -201 -246 -256 -327 -303 -166 -146 -216 -167 -202 -234 -310 -0 -0 -0 -0 -0 -0 -0 -0 -0 -0 -0 -0 -0 -0 -0 -0
-0 -0 -4 -0 -0 -0 -0 -0 -0 -0 -0 -25 -14 -48 -89 -139 -186 -305 -372 -413 -311 -175 -140 -196 -267 -285 -141 -0 -0 -0 -0 -0 -0 -0 -0 -0 -0 -0 -0 -0 -0 -0 -0 -0
-0 -0 -54 -40 -49 -41 -41 -0 -0 -0 -0 -0 -0 -0 -43 -154 -252 -171 -447 -405 -266 -260 -250 -292 -146 -5 -0 -0 -0 -0 -0 -0 -0 -0 -0 -0 -0 -0 -0 -0 -0 -0 -0 -0
-0 -41 -62 -52 -56 -46 -33 -74 -2 -2 -0 -13 -48 -41 -181 -202 -209 -0 -0 -0 -0 -0 -0 -0 -0 -0 -0 -0 -0 -0 -0 -0 -0 -0 -0 -0 -0 -0 -0 -0 -0 -0 -0 -0
-0 -46 -55 -32 -57 -31 -16 -58 -65 -83 -92 -43 -21 -85 -204 -241 -0 -0 -0 -0 -0 -0 -0 -0 -0 -0 -0 -0 -0 -0 -0 -0 -0 -0 -0 -0 -0 -0 -0 -0 -0 -0 -0 -0
-0 -0 -47 -32 -42 -8 -59 -9 -91 -65 -48 -193 -161 -180 -163 -122 -0 -0 -0 -0 -0 -0 -0 -0 -0 -0 -0 -0 -0 -0 -0 -0 -0 -0 -0 -0 -0 -0 -0 -0 -0 -0 -0 -0
-0 -0 -0 -37 -17 -0 -0 -0 -81 -36 -98 -58 -171 -0 -0 -0 -0 -0 -0 -0 -0 -0 -0 -0 -0 -0 -0 -0 -0 -0 -0 -0 -0 -0 -0 -0 -0 -0 -0 -0 -0 -0 -0 -0
-0 -0 -43 -0 -0 -0 -26 -0 -0 -0 -57 -0 -0 -0 -0 -0 -103 -0 -0 -0 -0 -0 -0 -0 -0 -0 -0 -0 -0 -0 -0 -0 -0 -0 -0 -0 -0 -0 -0 -0 -0 -0 -0 -0
-81 -0 -0 -0 -0 -0 -0 -0 -0 -0 -49 -0 -0 -0 -0 -0 -0 -0 -0 -0 -0 -0 -0 -0 -0 -0 -0 -0 -0 -0 -0 -0 -0 -0 -0 -0 -0 -0 -0 -0 -0 -0 -0 -0
-55 -16 -0 -0 -0 -0 -0 -0 -0 -37 -0 -0 -0 -0 -0 -0 -0 -0 -0 -0 -0 -0 -0 -0 -0 -0 -0 -0 -0 -0 -0 -0 -0 -0 -0 -0 -0 -0 -0 -0 -0 -0 -0 -0
-31 -5 -10 -0 -0 -0 -0 -0 -0 -0 -0 -0 -0 -0 -0 -0 -0 -0 -0 -0 -0 -0 -0 -0 -0 -0 -0 -0 -0 -0 -0 -0 -0 -0 -0 -0 -0 -0 -0 -0 -0 -0 -0 -0
-0 -0 -0 -0 -0 -0 -0 -0 -0 -0 -0 -0 -0 -0 -0 -0 -0 -0 -0 -0 -0 -0 -0 -0 -0 -0 -0 -0 -0 -0 -0 -0 -1 -0 -0 -0 -0 -0 -0 -0 -0 -0 -0 -0
-0 -0 -0 -0 -0 -0 -0 -0 -0 -0 -0 -0 -0 -0 -0 -0 -0 -0 -0 -0 -0 -0 -0 -0 -0 -0 -0 -0 -1 -0 -0 -0 -0 -0 -0 -0 -0 -0 -0 -0 -0 -0 -0 -0
-0 -0 -0 -0 -0 -0 -0 -0 -0 -0 -0 -0 -0 -0 -0 -0 -0 -0 -0 -0 -0 -0 -0 -0 -0 -0 -0 -0 -0 -0 -0 -0 -0 -0 -0 -0 -0 -0 -0 -0 -0 -1 -0 -0
Wind_Speed
29 34 40 39 37 35 43 41 37 37 30 33 35 31 27 25 27 29 23 18 19 20 19 16 14 13 13 12 14 16 16 14 13 14 18 19 19 20 20 22 23 24 23 23
30 42 35 29 32 30 36 41 37 30 27 31 32 33 29 26 26 25 28 26 24 21 19 18 16 15 14 14 14 14 15 15 17 18 20 20 20 21 20 22 24 24 23 24
36 34 30 33 33 29 33 40 40 30 28 26 27 34 33 30 29 26 24 23 25 25 21 20 20 20 16 15 14 14 15 17 18 17 18 18 16 18 19 21 22 23 22 24
29 24 35 35 34 28 28 30 32 36 30 36 32 42 37 32 31 31 28 27 26 26 26 25 25 22 20 17 16 15 16 16 16 14 15 15 16 18 18 19 20 22 25 27
25 29 36 40 40 30 24 20 24 31 35 32 33 38 36 34 37 34 31 28 27 26 25 24 24 22 19 16 15 13 12 12 11 11 11 13 14 15 16 19 22 24 25 26
17 25 23 31 31 31 23 19 17 21 25 37 36 38 38 38 36 34 32 30 27 26 25 23 21 18 16 11 9 8 8 9 8 9 11 12 14 16 18 20 23 25 26 27
20 21 20 24 29 29 29 26 25 29 34 34 28 31 35 28 31 34 34 32 29 25 24 23 20 17 14 11 8 6 5 6 7 9 10 12 14 16 18 21 23 24 26 27
24 25 24 26 26 27 24 24 24 29 32 28 20 33 29 30 25 26 29 29 28 25 21 18 17 15 12 8 5 1 3 4 6 8 10 12 15 18 19 21 22 24 26 27
21 20 24 21 23 19 28 27 18 17 19 22 25 25 22 22 26 29 27 27 28 25 20 17 15 12 8 6 4 1 1 3 6 8 10 13 16 18 19 20 22 24 26 28
21 18 24 18 21 22 22 22 24 20 24 27 25 28 29 23 25 27 28 28 26 23 19 15 13 10 7 5 3 1 2 3 6 9 12 15 17 20 20 21 23 24 26 28
17 20 20 21 25 19 14 16 19 17 17 24 26 24 19 20 19 23 24 25 23 20 16 13 10 8 6 3 2 0 2 5 7 10 14 17 19 21 22 23 25 28 30 31
18 19 24 23 21 23 17 17 16 18 19 18 18 21 15 15 18 19 21 22 19 15 12 10 10 9 6 4 3 2 5 7 9 13 16 18 20 22 24 26 28 29 30 31
21 19 15 17 16 18 22 16 13 11 13 18 19 18 15 18 19 20 21 19 15 11 8 10 10 8 6 5 4 5 8 10 13 15 17 19 22 25 27 28 29 30 32 34
16 15 17 18 15 14 18 17 15 11 14 13 17 18 18 17 18 19 18 16 13 8 7 9 9 7 6 6 6 8 11 12 14 17 20 23 26 27 28 29 31 33 35 38
19 16 11 10 13 15 13 6 9 7 1 11 19 17 18 14 16 17 15 13 8 5 7 8 8 6 6 7 7 9 13 16 18 20 22 25 27 29 31 33 35 37 39 40
19 15 14 12 10 12 13 11 4 2 11 24 24 13 12 9 11 14 16 8 4 6 7 7 4 4 6 9 12 13 15 18 20 21 25 27 30 33 35 37 39 40 41 42
17 14 15 13 12 8 9 11 2 11 18 19 14 10 6 7 9 12 13 6 3 6 4 3 5 7 10 12 14 16 18 20 23 26 29 31 34 37 39 41 41 42 43 44
16 19 16 13 12 14 15 19 16 14 16 18 12 5 5 6 8 9 7 3 3 1 1 4 5 8 11 14 15 19 21 23 27 29 32 35 39 42 42 42 41 42 42 41
21 20 21 22 20 17 20 22 19 20 21 19 8 4 8 9 8 8 8 8 4 3 4 7 10 13 14 17 21 23 25 29 32 35 38 40 42 42 41 41 41 39 38 37
17 18 23 23 27 26 22 18 16 18 24 13 4 8 11 13 2 5 6 7 6 7 10 10 12 14 17 21 24 27 30 33 36 39 40 39 39 39 39 38 37 34 32 29
20 21 28 24 26 25 21 11 11 20 20 4 7 9 9 6 6 10 9 10 9 9 10 12 15 18 21 25 28 31 33 36 37 38 38 37 37 37 34 34 32 30 29 27
22 20 26 23 26 27 14 11 18 15 7 6 4 3 6 10 12 10 10 8 9 11 14 16 18 21 25 28 30 33 34 35 36 36 36 36 35 33 31 31 29 28 27 28
25 24 21 23 21 18 17 18 16 7 4 4 5 6 10 10 10 8 6 8 11 14 17 20 23 25 28 29 30 32 33 34 35 35 35 34 33 31 29 29 28 28 28 28
22 21 19 14 18 15 13 11 7 3 4 5 6 7 6 7 6 6 8 11 15 18 21 22 24 26 28 29 30 31 33 34 34 34 33 32 31 30 29 28 26 27 28 29
26 20 18 19 15 7 10 6 3 6 8 8 9 9 7 5 6 8 11 14 17 18 20 22 24 25 27 28 30 31 33 33 32 32 31 30 29 29 28 27 27 28 28 28
27 27 29 24 7 13 3 1 6 7 7 9 9 7 6 7 8 10 12 15 17 19 20 22 23 24 26 28 30 32 32 32 32 31 29 29 28 27 27 28 28 28 28 28
Wind_Direction
218 217 215 216 221 228 224 223 226 227 234 228 231 234 239 235 238 240 245 254 258 261 270 281 287 291 286 282 278 281 286 297 306 311 309 313 313 321 327 325 320 319 320 318
216 218 219 220 221 226 224 222 225 228 229 230 230 233 239 239 238 242 247 249 255 264 271 277 284 288 288 288 287 290 295 298 301 306 311 313 315 319 324 324 322 322 323 326
216 220 219 217 219 223 227 224 222 225 227 236 230 236 238 243 246 248 248 258 262 264 270 276 280 281 288 287 289 292 296 302 305 311 316 318 325 328 326 328 329 332 333 332
222 227 216 216 218 221 226 230 225 226 226 230 236 236 239 241 244 248 253 258 262 267 270 273 277 280 283 287 290 295 300 307 314 319 325 328 329 325 329 332 335 338 337 334
222 218 214 214 215 220 225 230 224 226 231 236 237 241 240 243 245 248 254 260 262 266 268 272 277 279 286 289 289 295 305 314 324 335 344 342 341 343 342 338 336 336 337 337
228 219 218 219 217 218 225 226 226 228 232 235 239 241 246 244 247 251 256 261 265 266 266 271 277 281 285 290 297 305 317 329 342 351 352 353 350 344 340 337 334 333 333 334
219 215 225 219 208 215 220 218 222 229 233 239 243 244 249 253 254 254 257 263 267 269 265 265 266 270 273 278 288 302 329 343 354 3 4 3 359 352 346 340 338 337 335 334
213 215 215 214 209 216 215 216 230 233 233 239 251 249 255 254 262 264 265 266 269 268 266 255 255 260 263 263 262 275 348 11 10 7 1 357 355 348 345 343 340 337 336 336
216 223 214 215 215 209 217 225 239 249 249 245 251 262 272 267 264 264 268 270 269 267 261 256 249 248 243 231 222 210 36 15 2 4 357 353 352 348 349 346 344 341 341 339
215 211 213 209 213 228 227 226 236 252 244 250 259 264 265 270 268 268 270 270 272 270 259 249 244 235 224 211 224 172 353 349 344 344 342 347 348 347 347 347 346 345 344 341
214 211 209 208 219 221 212 223 242 256 266 256 262 270 278 275 276 273 274 276 275 270 254 244 228 210 208 204 169 193 326 346 340 338 338 341 343 344 346 345 341 338 335 335
222 207 203 211 224 222 228 230 242 247 260 269 278 277 286 286 285 283 284 286 284 272 248 226 209 201 199 196 212 271 307 325 329 329 331 337 343 344 341 338 335 336 336 337
218 214 204 216 227 229 233 239 249 263 274 267 276 279 290 289 291 289 287 293 290 272 237 206 193 199 206 214 261 290 303 314 321 329 331 335 335 333 333 335 335 334 333 332
222 222 222 222 229 236 241 243 246 256 275 284 282 288 293 291 296 301 299 296 291 267 212 198 205 213 229 257 284 297 308 322 324 324 327 327 329 332 332 333 333 331 330 328
225 223 232 244 245 243 252 240 235 237 225 290 280 296 293 298 303 305 313 312 281 225 190 201 206 221 256 284 309 312 312 315 320 320 322 329 330 329 329 328 327 327 326 326
234 236 243 252 263 254 258 268 275 261 280 252 252 308 321 312 312 331 337 331 246 208 199 211 219 272 294 295 298 311 314 315 318 322 322 325 324 325 324 324 325 325 326 326
239 242 247 253 256 267 280 266 307 274 259 264 295 323 55 318 330 336 1 44 154 170 188 222 262 280 298 307 308 314 316 318 317 316 320 321 322 321 322 322 325 325 326 326
239 238 251 255 254 260 260 239 253 263 257 258 294 22 51 44 18 342 345 21 79 170 50 303 319 315 325 314 315 317 318 317 316 320 321 319 318 318 321 323 325 326 329 330
241 238 239 241 247 263 243 235 245 244 249 259 299 39 81 87 56 337 328 13 10 358 3 359 336 322 326 326 308 313 316 314 316 317 316 316 317 319 323 325 328 331 334 336
249 246 240 240 237 243 251 257 265 254 247 280 71 99 110 116 35 312 342 11 360 344 322 331 336 331 325 322 315 312 314 316 316 315 316 319 320 323 326 330 333 337 339 342
244 243 237 242 241 248 263 277 285 265 270 70 110 108 97 60 23 94 70 54 28 7 347 338 335 330 326 323 318 317 317 317 317 318 319 321 325 329 333 335 339 343 343 345
244 243 242 247 245 248 278 279 267 288 15 63 97 86 70 77 88 84 71 38 4 347 341 340 338 333 327 324 321 320 320 320 320 321 325 328 330 334 339 341 345 345 345 345
247 249 249 252 259 273 267 274 281 314 47 43 81 93 103 93 86 71 32 354 342 341 335 331 328 326 326 326 326 325 326 327 327 328 328 330 334 340 344 345 346 345 345 344
250 246 254 260 268 273 274 296 307 360 62 62 76 95 91 92 62 35 347 339 337 335 333 335 336 336 335 335 335 333 331 332 332 333 334 337 340 343 346 348 349 346 342 344
239 243 244 250 254 282 286 300 35 76 80 80 77 79 69 52 10 358 345 340 339 345 346 345 343 343 342 343 343 342 341 341 340 340 341 342 344 346 349 352 348 342 339 345
238 235 235 246 243 270 267 46 92 91 89 82 82 59 16 6 3 355 350 347 352 351 353 353 354 352 351 350 348 346 346 346 345 345 346 346 348 351 352 351 346 342 343 348